MONITOR-2 (RS39S)

Last updated on Sun Jun 21 2026 00:03:20 GMT+0000 (Coordinated Universal Time)

1 57184U 23091U 26171.40896110 .00003706 00000+0 18040-3 0 9997 2 57184 97.5068 229.6713 0012781 101.4051 258.8619 15.18935296164440
UTC large
Height (km)
Speed (km/s)
/
Latitude / Longitude
Inclination (degrees)
Orbital Period (minutes)
Azimuth
Elevation
Range (km)
Doppler Factor

Next 0 passes for location: London (51.5072 / 0.1276)

No passes found over London.
MONITOR-2 (RS39S)